This demonstration page uses our WeatherBlox Daily Observations layout. Learn more.

Left ArrowRight Arrow

Hourly Observations for February 27, 2022

Temp ( °F °C ) Dew Point ( °F °C ) Humidity (%) Winds ( mph kmh ) Pressure ( in mb ) Visibility ( mi km ) Precip ( " mm )
12:53 am 00:53 Cloudy 51 10.6 38 3.3 61 61 NW 7 11 30.39 1029 10 16 0.00 0.00
1:53 am 01:53 Cloudy 50 10 38 3.3 63 63 N 6 9 30.40 1030 10 16 0.00 0.00
2:53 am 02:53 Cloudy 50 10 38 3.3 63 63 NW 3 6 30.41 1030 10 16 0.00 0.00
3:53 am 03:53 Cloudy 49 9.4 37 2.8 64 64 NNW 3 6 30.40 1030 10 16 0.00 0.00
4:53 am 04:53 Cloudy 49 9.4 38 3.3 66 66 NNW 3 6 30.40 1030 10 16 0.00 0.00
5:53 am 05:53 Mostly Cloudy 46 7.8 38 3.3 73 73 W 3 6 30.39 1029 10 16 0.00 0.00
6:53 am 06:53 Cloudy 46 7.8 38 3.3 73 73 NW 6 9 30.40 1030 10 16 0.00 0.00
7:53 am 07:53 Cloudy 50 10 39 3.9 66 66 WNW 3 6 30.41 1030 10 16 0.00 0.00
8:53 am 08:53 Cloudy 53 11.7 39 3.9 59 59 NNW 5 7 30.42 1030 10 16 0.00 0.00
9:53 am 09:53 Cloudy 57 13.9 39 3.9 51 51 VRB 3 6 30.42 1030 10 16 0.00 0.00
10:53 am 10:53 Cloudy 59 15 37 2.8 44 44 N 6 9 30.40 1030 10 16 0.00 0.00
11:53 am 11:53 Sunny 62 16.7 36 2.2 38 38 Calm 30.39 1029 10 16 0.00 0.00
12:53 pm 12:53 Sunny 64 17.8 33 0.6 32 32 Calm 30.36 1028 10 16 0.00 0.00
1:53 pm 13:53 Sunny 65 18.3 29 -1.7 26 26 Calm 30.32 1027 10 16 0.00 0.00
2:53 pm 14:53 Sunny 66 18.9 30 -1.1 26 26 VRB 5 7 30.32 1027 10 16 0.00 0.00
3:53 pm 15:53 Sunny 67 19.4 30 -1.1 25 25 Calm 30.30 1026 10 16 0.00 0.00
4:53 pm 16:53 Sunny 67 19.4 29 -1.7 24 24 Calm 30.30 1026 10 16 0.00 0.00
5:53 pm 17:53 Sunny 62 16.7 32 0 32 32 S 3 6 30.30 1026 10 16 0.00 0.00
6:53 pm 18:53 Clear 57 13.9 35 1.7 44 44 Calm 30.31 1026 10 16 0.00 0.00
7:53 pm 19:53 Clear 49 9.4 37 2.8 64 64 ENE 6 9 30.32 1027 10 16 0.00 0.00
8:53 pm 20:53 Clear 49 9.4 33 0.6 55 55 Calm 30.32 1027 10 16 0.00 0.00
9:53 pm 21:53 Clear 47 8.3 33 0.6 59 59 Calm 30.33 1027 10 16 0.00 0.00
10:53 pm 22:53 Clear 48 8.9 34 1.1 58 58 NNW 5 7 30.35 1028 10 16 0.00 0.00
11:53 pm 23:53 Clear 44 6.7 33 0.6 65 65 Calm 30.33 1027 10 16 0.00 0.00

Powered by AerisWeather